Simultaneous Nadir Overpasses (SNOs) Predictions

Prediction of SNOs between FY3D and AQUA Satellite Orbit:

Table of predicted SNOs for the next 14.0 days since TLE Epoch: 6/11/2022
Index Date (FY3D) Time (FY3D) Lat,Lon (FY3D) SZA (FY3D ) Date (AQUA) Time (AQUA) Lat,Lon (AQUA) SZA (AQUA ) Distance(km) Time Diff (sec)
1 06/11/2022 18:18:28 -75.89, 74.83 127.04 06/11/2022 18:19:18 -75.90, 74.78 127.04 1.43 50
2 06/11/2022 19:08:51 74.80,-114.50 51.74 06/11/2022 19:08:23 74.80,-114.52 51.74 0.62 28
3 06/14/2022 09:45:29 75.69, 23.76 52.59 06/14/2022 09:45:48 75.68, 23.80 52.58 1.30 19
4 06/14/2022 10:35:47 -74.41,-165.17 128.84 06/14/2022 10:34:48 -74.41,-165.17 128.83 0.14 59
5 06/17/2022 00:22:02 76.37, 162.34 53.29 06/17/2022 00:23:08 76.36, 162.41 53.26 2.07 66
6 06/17/2022 01:12:23 -75.27, -26.66 127.99 06/17/2022 01:12:11 -75.26, -26.63 128.00 0.82 12
7 06/19/2022 15:48:56 -75.92, 112.20 127.30 06/19/2022 15:49:31 -75.92, 112.21 127.31 0.47 35
8 06/19/2022 16:39:17 74.73, -76.83 51.36 06/19/2022 16:38:34 74.73, -76.84 51.37 0.22 43
9 06/22/2022 07:15:48 75.30, 62.44 52.00 06/22/2022 07:15:52 75.31, 62.35 52.01 2.75 4
10 06/22/2022 08:05:51 -73.27,-124.94 130.21 06/22/2022 08:04:37 -73.24,-125.08 130.23 5.70 74
11 06/24/2022 21:52:24 76.10,-159.21 52.96 06/24/2022 21:53:14 76.10,-159.23 52.95 0.55 50



Historial Predications of SNOs between FY3D and AQUA
